Newark, NJ

8:30 PM EDT on October 19, 2017 (GMT -0400)
Newark International

Weather History for KEWR - June, 2014

Change the Weather History Date:

Thursday, June 26, 2014

  Actual Average Record
Temperature  
Mean Temperature 80 °F 75 °F  
Max Temperature 89 °F 84 °F 102 °F (1952)
Min Temperature 71 °F 66 °F 55 °F (1986)
Degree Days  
Heating Degree Days 0 0  
Month to date heating degree days 0 15  
Since 1 June heating degree days 0 15  
Since 1 July heating degree days 5166 4870  
Cooling Degree Days 15 10  
Month to date cooling degree days 205 194  
Year to date cooling degree days 267 270  
Since 1 June cooling degree days 205 194  
Growing Degree Days 30 (Base 50)    
Moisture  
Dew Point 67 °F    
Average Humidity 70    
Maximum Humidity 93    
Minimum Humidity 46    
Precipitation  
Precipitation 0.17 in 0.13 in 1.18 in (1940)
Month to date precipitation 4.41 3.53  
Year to date precipitation 27.76 22.42  
Snow  
Snow 0.00 in 0.00 in 0.00 in (2002)
Month to date snowfall 0.0 0.0  
Since 1 July snowfall 61.1 28.5  
Snow Depth 0.00 in    
Sea Level Pressure  
Sea Level Pressure 29.86 in    
Wind  
Wind Speed 10 mph (NW)    
Max Wind Speed 20 mph    
Max Gust Speed 26 mph    
Visibility 10 miles    
Events Rain    
T = Trace of Precipitation, MM = Missing Value Source: NWS Daily Summary

Daily Weather History Graph

Daily Weather History Graph

Search for Another Location

Airport or City:

Trip Planner

Search our weather history database for the weather conditions in past years. The results will help you decide how hot, cold, wet, or windy it might be!

Date:

Astronomy

Jun. 26, 2014 Rise Set
Actual Time 5:27 AM EDT 8:31 PM EDT
Civil Twilight 4:53 AM EDT 9:05 PM EDT
Nautical Twilight 4:11 AM EDT 9:47 PM EDT
Astronomical Twilight 3:21 AM EDT 10:37 PM EDT
Moon 5:04 AM EDT (6/26) 7:50 PM EDT (6/26)
Length of Visible Light 16h 11m
Length of Day
15h 04m
Waning Crescent, 0% of the Moon is Illuminated
Jun 26
Waning Crescent
Jun 27
New
Jul 5
First Quarter
Jul 12
Full
Jul 18
Last Quarter

Hourly Weather History & Observations

Time (EDT) Temp. Heat Index Dew Point Humidity Pressure Visibility Wind Dir Wind Speed Gust Speed Precip Events Conditions
12:35 AM 73.4 °F - 69.8 °F 88% 29.84 in 8.0 mi West 5.8 mph - 0.03 in Rain Light Rain
12:51 AM 73.0 °F - 70.0 °F 90% 29.84 in 10.0 mi West 8.1 mph - 0.03 in Rain Light Rain
1:51 AM 72.0 °F - 70.0 °F 93% 29.83 in 4.0 mi West 9.2 mph - 0.10 in Rain Heavy Rain
2:51 AM 72.0 °F - 70.0 °F 93% 29.82 in 10.0 mi West 4.6 mph - 0.08 in   Mostly Cloudy
3:51 AM 72.0 °F - 70.0 °F 93% 29.81 in 10.0 mi West 5.8 mph - N/A   Mostly Cloudy
4:51 AM 71.1 °F - 69.1 °F 93% 29.82 in 10.0 mi WSW 6.9 mph - N/A   Mostly Cloudy
5:51 AM 71.1 °F - 69.1 °F 93% 29.84 in 10.0 mi WSW 4.6 mph - N/A   Mostly Cloudy
6:36 AM 71.6 °F - 69.8 °F 94% 29.83 in 10.0 mi WSW 5.8 mph - N/A   Mostly Cloudy
6:51 AM 72.0 °F - 69.1 °F 91% 29.83 in 10.0 mi West 4.6 mph - N/A   Scattered Clouds
7:51 AM 73.9 °F - 70.0 °F 87% 29.85 in 10.0 mi West 5.8 mph - N/A   Mostly Cloudy
8:51 AM 78.1 °F - 68.0 °F 71% 29.86 in 10.0 mi NNW 9.2 mph - N/A   Mostly Cloudy
9:37 AM 78.8 °F - 66.2 °F 65% 29.86 in 10.0 mi North 16.1 mph 20.7 mph N/A   Mostly Cloudy
9:51 AM 80.1 °F 82.3 °F 66.9 °F 64% 29.87 in 10.0 mi NW 10.4 mph 18.4 mph N/A   Mostly Cloudy
10:49 AM 80.6 °F 82.7 °F 66.2 °F 61% 29.86 in 10.0 mi NW 13.8 mph - N/A   Mostly Cloudy
10:51 AM 81.0 °F 83.0 °F 66.0 °F 60% 29.86 in 10.0 mi NNW 12.7 mph - N/A   Mostly Cloudy
11:51 AM 82.9 °F 85.0 °F 66.0 °F 56% 29.86 in 10.0 mi NW 12.7 mph - N/A   Mostly Cloudy
12:51 PM 84.9 °F 87.1 °F 66.0 °F 53% 29.86 in 10.0 mi WNW 12.7 mph 18.4 mph N/A   Mostly Cloudy
1:51 PM 86.0 °F 88.2 °F 66.2 °F 51% 29.84 in 10.0 mi WNW 10.4 mph 19.6 mph N/A   Mostly Cloudy
2:51 PM 87.1 °F 89.2 °F 66.0 °F 49% 29.84 in 10.0 mi WNW 10.4 mph 19.6 mph N/A   Mostly Cloudy
3:51 PM 87.1 °F 88.3 °F 64.0 °F 46% 29.84 in 10.0 mi NW 10.4 mph - N/A   Mostly Cloudy
4:51 PM 88.0 °F 89.3 °F 64.0 °F 45% 29.84 in 10.0 mi WNW 12.7 mph - N/A   Mostly Cloudy
5:51 PM 86.0 °F 87.3 °F 64.0 °F 48% 29.85 in 10.0 mi NW 11.5 mph 20.7 mph N/A   Mostly Cloudy
6:51 PM 84.9 °F 86.1 °F 64.0 °F 49% 29.86 in 10.0 mi NW 15.0 mph - N/A   Scattered Clouds
7:51 PM 84.0 °F 85.4 °F 64.0 °F 51% 29.87 in 10.0 mi NW 9.2 mph - N/A   Scattered Clouds
8:51 PM 82.9 °F 84.4 °F 64.0 °F 53% 29.89 in 10.0 mi North 9.2 mph - N/A   Mostly Cloudy
9:51 PM 80.1 °F 81.9 °F 64.9 °F 60% 29.92 in 10.0 mi North 12.7 mph - N/A   Scattered Clouds
10:51 PM 79.0 °F - 63.0 °F 58% 29.94 in 10.0 mi NNE 13.8 mph - N/A   Scattered Clouds
11:51 PM 77.0 °F - 62.1 °F 60% 29.96 in 10.0 mi NNE 13.8 mph - N/A   Scattered Clouds